EZS17GH LFBD-LSGG

Flight info

Callsign EZS17GH
Flight time 0h 57m
Altitude 34000
Route OBLOC DCT SECHE DCT NARAK DCT DITEV DCT MEN DCT NINUN DCT LATAM DCT ETREK/N0405F300 DCT LUXAN G53 LTP Z16 BELUS
Aircraft A320/M-SDE2E3FGHIJ1RWXYZ/LB1

Departure

Time 2026-05-06 21:43
Airport Bordeaux–Mérignac Airport (LFBD)

Arrival

Time 2026-05-06 22:41
Airport Geneva International Airport (LSGG)
Time Latitude Longitude Altitude Speed Heading
2026-05-06 21:16 44.82872 -0.70027 165 ft 0 kts 15°
2026-05-06 21:35 44.82870 -0.70028 165 ft 2 kts 15°
2026-05-06 21:35 44.82845 -0.70038 164 ft 4 kts 15°
2026-05-06 21:36 44.82825 -0.70044 164 ft 4 kts 340°
2026-05-06 21:36 44.82811 -0.70021 164 ft 4 kts 284°
2026-05-06 21:36 44.82807 -0.69998 164 ft 0 kts 286°
2026-05-06 21:38 44.82810 -0.70013 164 ft 5 kts 286°
2026-05-06 21:39 44.82826 -0.70090 164 ft 11 kts 289°
2026-05-06 21:39 44.82826 -0.70161 164 ft 9 kts 229°
2026-05-06 21:39 44.82769 -0.70125 164 ft 14 kts 127°
2026-05-06 21:39 44.82745 -0.70006 164 ft 9 kts 99°
2026-05-06 21:40 44.82734 -0.69961 164 ft 0 kts 114°
2026-05-06 21:40 44.82728 -0.69946 164 ft 5 kts 118°
2026-05-06 21:40 44.82707 -0.69931 164 ft 2 kts 191°
2026-05-06 21:40 44.82694 -0.69935 164 ft 0 kts 198°
2026-05-06 21:41 44.82677 -0.69943 164 ft 6 kts 198°
2026-05-06 21:41 44.82615 -0.69973 165 ft 10 kts 198°
2026-05-06 21:41 44.82570 -0.69993 165 ft 9 kts 199°
2026-05-06 21:41 44.82554 -0.70070 166 ft 5 kts 273°
2026-05-06 21:42 44.82558 -0.70089 166 ft 0 kts 287°
2026-05-06 21:43 44.82576 -0.70177 166 ft 38 kts 287°
2026-05-06 21:43 44.82725 -0.70881 161 ft 109 kts 287°
2026-05-06 21:43 44.82987 -0.72145 309 ft 145 kts 285°
2026-05-06 21:43 44.83256 -0.73398 1062 ft 130 kts 288°
2026-05-06 21:44 44.83276 -0.74710 1464 ft 145 kts 251°
2026-05-06 21:44 44.82537 -0.75806 1689 ft 173 kts 205°
2026-05-06 21:44 44.81264 -0.76063 2008 ft 197 kts 175°
2026-05-06 21:44 44.79866 -0.75612 2367 ft 217 kts 164°
2026-05-06 21:45 44.78324 -0.75045 2600 ft 243 kts 168°
2026-05-06 21:45 44.76574 -0.74562 2996 ft 267 kts 170°
2026-05-06 21:45 44.74689 -0.74074 3614 ft 283 kts 171°
2026-05-06 21:45 44.72788 -0.73581 4741 ft 274 kts 169°
2026-05-06 21:46 44.71049 -0.72436 5425 ft 286 kts 136°
2026-05-06 21:46 44.69965 -0.70110 6284 ft 286 kts 111°
2026-05-06 21:46 44.69496 -0.67410 7166 ft 284 kts 93°
2026-05-06 21:46 44.69584 -0.64668 8057 ft 283 kts 79°
2026-05-06 21:47 44.69759 -0.61868 8742 ft 292 kts 89°
2026-05-06 21:47 44.69629 -0.59015 9625 ft 294 kts 94°
2026-05-06 21:47 44.69404 -0.56131 10244 ft 305 kts 95°
2026-05-06 21:47 44.69171 -0.53063 10564 ft 324 kts 95°
2026-05-06 21:48 44.68972 -0.49873 11192 ft 331 kts 94°
2026-05-06 21:48 44.68809 -0.46634 11912 ft 334 kts 92°
2026-05-06 21:48 44.68677 -0.43396 12631 ft 338 kts 92°
2026-05-06 21:48 44.68562 -0.40081 13352 ft 342 kts 92°
2026-05-06 21:49 44.68451 -0.36726 14039 ft 346 kts 92°
2026-05-06 21:49 44.68335 -0.33336 14668 ft 349 kts 92°
2026-05-06 21:49 44.68216 -0.29917 15309 ft 352 kts 92°
2026-05-06 21:49 44.68093 -0.26470 15943 ft 355 kts 92°
2026-05-06 21:50 44.67965 -0.22987 16561 ft 358 kts 92°
2026-05-06 21:50 44.67835 -0.19479 17186 ft 361 kts 92°
2026-05-06 21:50 44.67494 -0.15962 17792 ft 365 kts 103°
2026-05-06 21:50 44.66699 -0.12558 18384 ft 369 kts 113°
2026-05-06 21:51 44.65572 -0.09304 18901 ft 372 kts 116°
2026-05-06 21:51 44.64415 -0.06040 19425 ft 376 kts 116°
2026-05-06 21:51 44.63247 -0.02734 19944 ft 379 kts 116°
2026-05-06 21:51 44.62069 0.00596 20457 ft 383 kts 116°
2026-05-06 21:52 44.60878 0.03954 20954 ft 386 kts 116°
2026-05-06 21:52 44.59678 0.07344 21460 ft 390 kts 115°
2026-05-06 21:52 44.58466 0.10766 21963 ft 393 kts 115°
2026-05-06 21:52 44.57239 0.14214 22465 ft 397 kts 115°
2026-05-06 21:53 44.55999 0.17690 22959 ft 400 kts 115°
2026-05-06 21:53 44.54748 0.21192 23457 ft 403 kts 115°
2026-05-06 21:53 44.53489 0.24718 23901 ft 407 kts 115°
2026-05-06 21:53 44.52218 0.28276 24331 ft 410 kts 116°
2026-05-06 21:54 44.50938 0.31850 24749 ft 412 kts 116°
2026-05-06 21:54 44.49647 0.35452 25179 ft 415 kts 116°
2026-05-06 21:54 44.48348 0.39074 25595 ft 417 kts 116°
2026-05-06 21:54 44.47037 0.42715 25966 ft 420 kts 116°
2026-05-06 21:55 44.45734 0.46331 26357 ft 423 kts 116°
2026-05-06 21:55 44.44468 0.50111 26734 ft 425 kts 110°
2026-05-06 21:55 44.43610 0.54077 27104 ft 426 kts 100°
2026-05-06 21:55 44.43123 0.58166 27472 ft 428 kts 97°
2026-05-06 21:56 44.42672 0.62288 27824 ft 430 kts 97°
2026-05-06 21:56 44.42212 0.66440 28176 ft 432 kts 97°
2026-05-06 21:56 44.41747 0.70600 28513 ft 435 kts 97°
2026-05-06 21:56 44.41275 0.74789 28848 ft 437 kts 98°
2026-05-06 21:57 44.40803 0.78950 29161 ft 440 kts 97°
2026-05-06 21:57 44.40314 0.83245 29463 ft 443 kts 97°
2026-05-06 21:57 44.39829 0.87505 29794 ft 446 kts 97°
2026-05-06 21:57 44.39339 0.91798 30105 ft 448 kts 97°
2026-05-06 21:58 44.38851 0.96058 30354 ft 450 kts 97°
2026-05-06 21:58 44.38353 1.00385 30612 ft 452 kts 98°
2026-05-06 21:58 44.37850 1.04737 30869 ft 455 kts 98°
2026-05-06 21:58 44.37344 1.09108 31113 ft 457 kts 98°
2026-05-06 21:59 44.36835 1.13498 31353 ft 459 kts 98°
2026-05-06 21:59 44.36323 1.17913 31608 ft 461 kts 98°
2026-05-06 21:59 44.35809 1.22331 31936 ft 460 kts 98°
2026-05-06 21:59 44.35297 1.26729 32333 ft 459 kts 98°
2026-05-06 22:00 44.34777 1.31126 32679 ft 458 kts 98°
2026-05-06 22:00 44.34255 1.35520 33013 ft 458 kts 98°
2026-05-06 22:00 44.33735 1.39907 33350 ft 458 kts 99°
2026-05-06 22:00 44.33215 1.44293 33684 ft 458 kts 99°
2026-05-06 22:01 44.32694 1.48678 33953 ft 459 kts 99°
2026-05-06 22:01 44.32172 1.53050 34007 ft 451 kts 99°
2026-05-06 22:01 44.31662 1.57300 34000 ft 437 kts 99°
2026-05-06 22:01 44.31160 1.61444 34002 ft 431 kts 99°
2026-05-06 22:02 44.30159 1.69666 34002 ft 429 kts 99°
2026-05-06 22:02 44.30092 1.77939 34002 ft 426 kts 79°
2026-05-06 22:03 44.31409 1.85999 34002 ft 426 kts 75°
2026-05-06 22:03 44.32761 1.94058 33997 ft 426 kts 76°
2026-05-06 22:04 44.34098 2.02134 33989 ft 427 kts 76°
2026-05-06 22:04 44.35438 2.10218 33986 ft 428 kts 76°
2026-05-06 22:05 44.36778 2.18320 33982 ft 428 kts 76°
2026-05-06 22:05 44.38109 2.26425 33986 ft 428 kts 76°
2026-05-06 22:06 44.39438 2.34545 33986 ft 429 kts 76°
2026-05-06 22:06 44.40765 2.42682 34006 ft 429 kts 76°
2026-05-06 22:07 44.42080 2.50809 34003 ft 428 kts 76°
2026-05-06 22:07 44.43385 2.58930 34005 ft 428 kts 76°
2026-05-06 22:08 44.44682 2.67044 34001 ft 427 kts 76°
2026-05-06 22:08 44.45973 2.75160 33995 ft 428 kts 77°
2026-05-06 22:09 44.47266 2.83295 33995 ft 428 kts 77°
2026-05-06 22:09 44.49038 2.91203 33994 ft 426 kts 62°
2026-05-06 22:10 44.52196 2.98184 33987 ft 424 kts 54°
2026-05-06 22:10 44.55491 3.05035 33987 ft 424 kts 54°
2026-05-06 22:11 44.58780 3.11909 34005 ft 425 kts 54°
2026-05-06 22:11 44.62014 3.18862 34003 ft 425 kts 57°
2026-05-06 22:12 44.64944 3.26082 34002 ft 426 kts 60°
2026-05-06 22:12 44.67757 3.33389 34000 ft 425 kts 60°
2026-05-06 22:13 44.70592 3.40615 34006 ft 425 kts 59°
2026-05-06 22:13 44.73515 3.47913 34002 ft 425 kts 59°
2026-05-06 22:14 44.76414 3.55169 33991 ft 425 kts 59°
2026-05-06 22:14 44.79276 3.62384 33998 ft 425 kts 59°
2026-05-06 22:15 44.82172 3.69703 33988 ft 425 kts 59°
2026-05-06 22:15 44.85023 3.76927 33999 ft 425 kts 59°
2026-05-06 22:16 44.87892 3.84217 33979 ft 425 kts 60°
2026-05-06 22:16 44.90769 3.91526 33976 ft 427 kts 60°
2026-05-06 22:17 44.93642 3.98857 33989 ft 428 kts 60°
2026-05-06 22:17 44.96516 4.06208 33988 ft 427 kts 60°
2026-05-06 22:18 44.99395 4.13609 33772 ft 438 kts 60°
2026-05-06 22:18 45.00860 4.17395 33501 ft 440 kts 60°
2026-05-06 22:18 45.02325 4.21188 33228 ft 438 kts 60°
2026-05-06 22:19 45.03792 4.24973 32958 ft 439 kts 60°
2026-05-06 22:19 45.05254 4.28736 32677 ft 435 kts 60°
2026-05-06 22:19 45.06707 4.32483 32183 ft 432 kts 60°
2026-05-06 22:19 45.08142 4.36199 31710 ft 429 kts 60°
2026-05-06 22:20 45.09566 4.39896 31249 ft 426 kts 60°
2026-05-06 22:20 45.10981 4.43568 30776 ft 424 kts 60°
2026-05-06 22:20 45.12382 4.47205 30320 ft 421 kts 61°
2026-05-06 22:20 45.13777 4.50838 29837 ft 418 kts 61°
2026-05-06 22:21 45.15154 4.54428 29383 ft 412 kts 61°
2026-05-06 22:21 45.16510 4.57976 28954 ft 407 kts 61°
2026-05-06 22:21 45.17849 4.61479 28541 ft 401 kts 61°
2026-05-06 22:21 45.19173 4.64941 28115 ft 397 kts 61°
2026-05-06 22:22 45.20481 4.68361 27713 ft 393 kts 61°
2026-05-06 22:22 45.21778 4.71755 27298 ft 389 kts 61°
2026-05-06 22:22 45.23059 4.75120 26881 ft 386 kts 61°
2026-05-06 22:22 45.24324 4.78450 26456 ft 383 kts 61°
2026-05-06 22:23 45.25581 4.81772 26035 ft 380 kts 61°
2026-05-06 22:23 45.26825 4.85056 25604 ft 377 kts 61°
2026-05-06 22:23 45.28064 4.88324 25166 ft 375 kts 61°
2026-05-06 22:23 45.29293 4.91572 24732 ft 372 kts 61°
2026-05-06 22:24 45.30514 4.94797 24281 ft 370 kts 61°
2026-05-06 22:24 45.31731 4.98019 23827 ft 368 kts 61°
2026-05-06 22:24 45.32937 5.01215 23357 ft 366 kts 61°
2026-05-06 22:24 45.34136 5.04396 22893 ft 363 kts 61°
2026-05-06 22:25 45.35320 5.07544 22477 ft 360 kts 61°
2026-05-06 22:25 45.36493 5.10669 22045 ft 357 kts 61°
2026-05-06 22:25 45.37656 5.13771 21627 ft 354 kts 61°
2026-05-06 22:25 45.38811 5.16848 21209 ft 352 kts 61°
2026-05-06 22:26 45.39958 5.19908 20798 ft 349 kts 61°
2026-05-06 22:26 45.41098 5.22956 20390 ft 348 kts 61°
2026-05-06 22:26 45.42228 5.25983 19981 ft 346 kts 61°
2026-05-06 22:26 45.43354 5.29000 19578 ft 345 kts 61°
2026-05-06 22:27 45.44479 5.32016 19175 ft 344 kts 61°
2026-05-06 22:27 45.45217 5.33999 18910 ft 343 kts 61°
2026-05-06 22:27 45.46334 5.37005 18507 ft 343 kts 61°
2026-05-06 22:27 45.47452 5.40005 18067 ft 342 kts 60°
2026-05-06 22:28 45.48779 5.42793 17659 ft 339 kts 47°
2026-05-06 22:28 45.50474 5.45080 17275 ft 334 kts 35°
2026-05-06 22:28 45.52429 5.46834 16890 ft 331 kts 28°
2026-05-06 22:28 45.54415 5.48470 16518 ft 329 kts 28°
2026-05-06 22:29 45.56397 5.50110 16146 ft 328 kts 28°
2026-05-06 22:29 45.58364 5.51746 15772 ft 327 kts 28°
2026-05-06 22:29 45.60321 5.53378 15396 ft 325 kts 28°
2026-05-06 22:29 45.62269 5.55005 15036 ft 324 kts 28°
2026-05-06 22:30 45.64215 5.56631 14672 ft 323 kts 28°
2026-05-06 22:30 45.66152 5.58249 14308 ft 322 kts 28°
2026-05-06 22:30 45.68089 5.59863 13976 ft 321 kts 28°
2026-05-06 22:30 45.70017 5.61420 13641 ft 319 kts 27°
2026-05-06 22:31 45.71943 5.62936 13198 ft 311 kts 27°
2026-05-06 22:31 45.73824 5.64401 12830 ft 308 kts 27°
2026-05-06 22:31 45.75713 5.65872 12465 ft 307 kts 27°
2026-05-06 22:31 45.77585 5.67334 12118 ft 306 kts 27°
2026-05-06 22:32 45.79447 5.68799 11751 ft 305 kts 27°
2026-05-06 22:32 45.81300 5.70266 11383 ft 304 kts 27°
2026-05-06 22:32 45.83153 5.71737 11020 ft 303 kts 27°
2026-05-06 22:32 45.84996 5.73196 10650 ft 302 kts 27°
2026-05-06 22:33 45.86832 5.74649 10270 ft 301 kts 27°
2026-05-06 22:33 45.88754 5.75831 9878 ft 299 kts 14°
2026-05-06 22:33 45.90778 5.76439 9514 ft 294 kts
2026-05-06 22:33 45.92780 5.76985 8829 ft 292 kts
2026-05-06 22:34 45.94771 5.77543 8093 ft 290 kts
2026-05-06 22:34 45.96741 5.78099 7383 ft 289 kts
2026-05-06 22:34 45.98665 5.78642 7099 ft 272 kts
2026-05-06 22:34 46.00459 5.79149 7022 ft 262 kts
2026-05-06 22:35 46.02200 5.79887 7021 ft 263 kts 26°
2026-05-06 22:35 46.03636 5.81459 6805 ft 257 kts 45°
2026-05-06 22:35 46.04887 5.83284 6493 ft 255 kts 45°
2026-05-06 22:35 46.06124 5.85093 6146 ft 253 kts 45°
2026-05-06 22:36 46.07358 5.86888 5795 ft 250 kts 45°
2026-05-06 22:36 46.08558 5.88631 5458 ft 241 kts 45°
2026-05-06 22:36 46.09728 5.90332 5146 ft 235 kts 46°
2026-05-06 22:36 46.10860 5.91980 4834 ft 228 kts 45°
2026-05-06 22:37 46.11958 5.93578 4527 ft 222 kts 45°
2026-05-06 22:37 46.13027 5.95136 4237 ft 214 kts 45°
2026-05-06 22:37 46.14048 5.96625 3964 ft 205 kts 46°
2026-05-06 22:37 46.15025 5.98049 3663 ft 196 kts 46°
2026-05-06 22:38 46.15962 5.99417 3410 ft 188 kts 46°
2026-05-06 22:38 46.16846 6.00707 3197 ft 172 kts 46°
2026-05-06 22:38 46.17655 6.01889 2953 ft 160 kts 46°
2026-05-06 22:38 46.18423 6.03011 2727 ft 155 kts 46°
2026-05-06 22:39 46.19172 6.04106 2509 ft 152 kts 45°
2026-05-06 22:39 46.19906 6.05181 2278 ft 150 kts 46°
2026-05-06 22:39 46.20633 6.06244 2059 ft 148 kts 46°
2026-05-06 22:39 46.21355 6.07306 1840 ft 148 kts 45°
2026-05-06 22:40 46.22086 6.08377 1646 ft 150 kts 46°
2026-05-06 22:40 46.22819 6.09437 1454 ft 149 kts 47°
2026-05-06 22:40 46.23493 6.10438 1389 ft 118 kts 45°
2026-05-06 22:40 46.23941 6.11116 1374 ft 69 kts 46°
2026-05-06 22:41 46.24328 6.11810 1368 ft 22 kts 75°
2026-05-06 22:41 46.24332 6.11919 1364 ft 0 kts 116°
2026-05-06 22:42 46.24330 6.11924 1364 ft 3 kts 117°
2026-05-06 22:42 46.24280 6.11940 1362 ft 13 kts 202°
2026-05-06 22:43 46.24205 6.11812 1363 ft 20 kts 227°
2026-05-06 22:43 46.24115 6.11682 1367 ft 15 kts 226°
2026-05-06 22:43 46.24044 6.11578 1370 ft 14 kts 225°
2026-05-06 22:43 46.23981 6.11486 1372 ft 12 kts 225°
2026-05-06 22:44 46.23978 6.11482 1373 ft 10 kts 225°
2026-05-06 22:44 46.23922 6.11399 1375 ft 14 kts 225°
2026-05-06 22:44 46.23852 6.11296 1375 ft 15 kts 225°
2026-05-06 22:44 46.23768 6.11173 1380 ft 19 kts 225°
2026-05-06 22:45 46.23682 6.11047 1386 ft 17 kts 225°
2026-05-06 22:45 46.23607 6.10938 1391 ft 8 kts 226°
2026-05-06 22:45 46.23558 6.10863 1386 ft 13 kts 226°
2026-05-06 22:45 46.23485 6.10752 1387 ft 17 kts 227°
2026-05-06 22:46 46.23407 6.10722 1402 ft 11 kts 135°
2026-05-06 22:46 46.23339 6.10806 1397 ft 14 kts 159°
2026-05-06 22:46 46.23247 6.10769 1393 ft 15 kts 206°
2026-05-06 22:46 46.23159 6.10650 1397 ft 19 kts 226°
2026-05-06 22:47 46.23119 6.10589 1397 ft 6 kts 226°
2026-05-06 22:47 46.23117 6.10586 1398 ft 0 kts 226°
2026-05-06 22:48 46.23103 6.10567 1398 ft 5 kts 216°
2026-05-06 22:48 46.23065 6.10599 1403 ft 7 kts 139°
2026-05-06 22:48 46.23055 6.10613 1400 ft 0 kts 137°